Terug naar catalogus

STARLINK-34281

ActiefCommunicatieVLEO
NORAD 64260·PAYLOAD·🇺🇸 United States

Gelanceerd Jun 4, 2025 vanaf Vandenberg Space Force Base

Loading…

Volgende Passages (komende 24 uur)

TLE

VersSource: CelesTrak SupGP

Epoch: Sep 14, 2026, 20:57 UTC

1 64260C 25120E   26257.87340278 -.00016954  00000+0 -50109-3 0  2570
2 64260  53.1592 312.3316 0001140  82.1015 155.5867 15.34388783    15

Volg STARLINK-34281 in realtime met AllMySat

Download on the App Store